{"data":{"norad_id":52270,"intl_designator":"2022-041K","name":"STARLINK-3804","alt_names":[],"object_type":"PAYLOAD","status":"ACTIVE","operator":null,"country":"US","launch_date":"2022-04-21","launch_site_code":"AFETR","launch_vehicle":null,"mission":null,"orbit_class":"UNKNOWN","rcs_meters":null,"size_class":null,"mass_kg":null,"dimensions":null,"purposes":["comms"],"wikipedia_slug":null,"has_3d_model":false,"image_url":null,"decayed_at":null,"tle_current":{"epoch":"2026-09-19T20:33:23.411808Z","epoch_age_seconds":115153,"freshness":"FRESH","line1":"1 52270U 22041K   26262.85652097  .00000318  00000+0  20548-4 0  9999","line2":"2 52270  53.1610 310.7540 0001050  77.8389 282.2731 15.34386427243762","mean_motion":15.34386427,"eccentricity":0.000105,"inclination_deg":53.161,"raan_deg":310.754,"arg_perigee_deg":77.8389,"mean_anomaly_deg":282.2731,"bstar":2.0548e-5,"rev_number":24376,"period_min":93.848588247451,"perigee_km":462.02528985972,"apogee_km":463.46187478201,"semimajor_km":6840.8805823209,"source":"CELESTRAK","updated_at":"2026-09-20T09:00:40.012572Z"}}}